Volver al catálogo

SL-14 DEB

ActivoPO
NORAD 26025·DEBRIS·🇷🇺 Russia

Lanzado Sep 28, 1991 desde Plesetsk Cosmodrome

Loading…

Próximos Pases (próximas 24 horas)

TLE

EnvejeciendoSource: Space-Track

Época: Sep 9, 2026, 07:27 UTC

1 26025U 91068AL  26252.31110990  .00000054  00000-0  29586-3 0  9992
2 26025  82.7312  20.6687 0261628 129.6654 258.3184 12.36144003588249

Sigue SL-14 DEB en tiempo real con AllMySat

Download on the App Store